COSMOS 1261 DEB, 12893

Orbit data source: Space-Track

COSMOS 1261 DEB, 12893 is space debris originally from a launch on Tue, 31 Mar 1981 UTC launched from the Plesetsk Missile And Space Complex (PKMTR). Debris objects in space refer to the collection of defunct objects orbiting the Earth. Examples of debris include non-operational satellites, rocket bodies, and fragments generated from explosions, collisions, or faulty payload assembly.

Loading next visibility...
Identifier
12893, 1981-031F
Orbit
Molniya
Country
Flag of CISCIS
Related business
Manufacturer
Unknown
Mission
Spacecraft
Bus & Motor
Unknown
Mass
Unknown
Launch date (UTC)
1981-03-31 (45 years ago)
Launch vehicle
Unknown
Launch site
Plesetsk Missile And Space Complex (PKMTR)
Object type
Payload
Rocket body
Debris
Shape & HBR
Unknown shape, 0.6 m
Radar Cross Section
Medium (>0.1 m² and <1 m²)

Expand to show TLE details & history
Last TLE update: 1 day ago

TLE from 1 day ago
0 COSMOS 1261 DEB
1 12893U 81031F   26132.11104238 -.00000726  00000-0  00000+0 0  9995
2 12893  64.3920 350.2533 7136687  25.8865 357.0505  2.01214197311380
Epoch: 2026-05-12T02:39Z
TLE epoch observation values (Epoch: 2026-05-12T02:39:54.061Z)
Latitude
-0.00012°
Longitude
80.39642°
Altitude
1,523.132 km
Speed
9.267 km/s
True Right ascension
23h 21m 02s
True Declination
0° 00' 00"
Sunlit
Object was in daylight at epoch
Visualization orbit readout
Latitude
Unknown
Longitude
Unknown
Altitude
Unknown
Speed
Unknown
Apparent Right ascension
Unknown
Apparent Declination
Unknown
Sunlit
N/A
Visualization observer readout
Local Sidereal Time
15:25:23
Azimuth
Unknown
Elevation
Unknown
Doppler factor
Unknown
Orbital elements
Apogee altitude
39,037.542 km
Perigee altitude
1,210.22 km
Semi-major axis
26,502.018 km
Eccentricity
0.71367
Inclination
64.392°
RAAN
350.2533°
Arg. of periapsis
25.8865°
True anomaly
335.44199°
Mean anomaly
357.0505°
Eccentric anomaly
349.83182°
Mean motion
0.50307 °/min
Orbital period
715.61 mins
BSTAR
0
Loading maneuver chart data...
Computing Atmospheric mass density...
Loading historical data...
Loading historical data...
Loading historical data...
Loading historical data...
Loading historical data...
Loading historical data...
Loading historical data...

Documentation

Showing up to 5 results
|